Погода в Нововяткино

Россия / Тюменская область     56°35′29″N   70°26′23″E
темп.,
°C
ветер,
м/с
пор.,
м/с
влажн.,
%
обл.,
%
осадки,
мм/ч
давл.,
гПа
погр.,
м
6 марта, сб
сб623:00−2ююз4129494 0.1 1001517
02:00−2ююз61296100 1.8 998724
05:000юз81497100 4.1 997915
08:00−4з81489100 0.4 997741
11:00−6з8138798 0.4 1002741
14:00−7з8128496 0.0 1005756
17:00−8з5138365 0.0 1006670
20:00−11зюз5119115 0.0 1008263
7 марта, вс
вс723:00−12юз5119418 0.0 1009259
02:00−13зюз5119371 0.0 1010273
05:00−15юз4109567 0.0 1012182
08:00−16зюз499529 0.0 1013148
11:00−11юз349145 0.0 1015277
14:00−9ююв3488100 0.0 1014345
17:00−8юв4892100 0.0 1011414
20:00−9вюв61295100 0.9 1005478
8 марта, пн
пн823:00−7вюв71395100 4.3 999452
02:00+1ююз91698100 1.7 994940
05:00−10з81490100 2.1 997598
08:00−12з71491100 0.0 1002490
11:00−10з61088100 0.1 1007608
14:00−10з7108499 0.0 1009779
17:00−11зюз5108796 0.0 1011622
20:00−13ююз41192100 0.0 1012377
9 марта, вт
вт923:00−13ююз5119297 0.1 1012405
02:00−12ююз6119397 0.1 1011431
05:00−12ююз6129298 0.2 1010432
08:00−13ююз61393100 0.1 1009461
11:00−9ююз71292100 0.1 1008546
14:00−7ююз61193100 0.2 1007666
17:00−7юз61091100 0.8 1006763
20:00−7юз61391100 0.1 1006559
10 марта, ср
ср1023:00−8юз51392100 0.2 1007374
02:00−12зюз479570 0.0 1009111
05:00−14юз339483 0.0 100923
08:00−13юз2292100 0.0 100922
11:00−9ю2287100 0.0 1008241
14:00−6юв1184100 0.0 1006367
17:00−7ссв1191100 0.0 100423
20:00−10ссв1193100 0.0 100421